Home > Weather > Thun > Past weeks

Flag for Switzerland Weather for the Past 2 Weeks in Thun, Bern, Switzerland

Now
48 °F

Rain showers. Partly sunny.


Feels Like: 41 °F
Forecast: 40 / 47 °F
Wind: 20 mph from West

Location: Bern / Belp

Current Time: Apr 30, 2016 at 5:24:17 PM

Latest Report: Apr 30, 2016 at 4:50 PM


Visibility: 3 mi

Pressure: 29.95 "Hg (28.00 "Hg at 557m altitude)

Humidity: 94%

Dew Point: 46 °F

Location of ThunLocation

Historic Weather in Thun — Graph

°F

Thun Temperature Yesterday

Maximum temperature yesterday: 61 °F (at 6:20 PM)
Minimum temperature yesterday: 28 °F (at 5:20 AM)
Average temperature yesterday: 45 °F

High & Low Weather Summary for the Past Weeks

 TemperatureHumidityPressure
High72 °F (Apr 21, 3:20 PM)100% (Apr 15, 7:50 PM)30.27 "Hg (Apr 15, 7:50 PM)
Low28 °F (Apr 28, 6:50 AM)32% (Apr 28, 4:20 PM)29.62 "Hg (Apr 16, 8:20 PM)
Average46 °F80%29.97 "Hg
* Reported Apr 15 4:20 PM — Apr 30 4:20 PM, Thun, Weather by CustomWeather, © 2016

Note: Actual official high and low records may vary slightly from our data, if they occured in-between our weather recording intervals... More about our weather records

Advertising

Thun Weather History for the Previous 24 Hours

Scroll right to see more
 ConditionsComfort  
Time TempWeatherWind HumidityBarometerVisibility
4:20 PM
Sat, Apr 30
52 °FRain. Partly sunny.17 mph67%29.92 "Hg4 mi
3:50 PM55 °FPartly sunny.15 mph51%29.92 "HgN/A
3:20 PM59 °FPartly sunny.8 mph45%29.92 "HgN/A
2:50 PM59 °FBroken clouds.9 mph48%29.92 "HgN/A
2:20 PM59 °FPartly sunny.9 mph45%29.92 "HgN/A
1:50 PM59 °FPartly sunny.9 mph48%29.92 "HgN/A
1:20 PM59 °FPartly sunny.10 mph45%29.92 "HgN/A
12:50 PM59 °FPartly sunny.10 mph48%29.92 "HgN/A
12:20 PM57 °FPassing clouds.9 mph55%29.95 "HgN/A
11:50 AM57 °FPassing clouds.8 mph55%29.95 "HgN/A
11:20 AM57 °FPassing clouds.8 mph59%29.95 "HgN/A
10:50 AM55 °FPassing clouds.3 mph59%29.98 "HgN/A
10:20 AM54 °FPartly sunny.No wind58%29.98 "HgN/A
9:50 AM52 °FScattered clouds.5 mph67%29.98 "HgN/A
9:20 AM50 °FScattered clouds.3 mph67%29.98 "HgN/A
8:50 AM46 °FScattered clouds.2 mph82%30.01 "HgN/A
8:20 AM45 °FScattered clouds.1 mph81%30.01 "HgN/A
7:50 AM41 °FScattered clouds.1 mph93%30.01 "HgN/A
7:20 AM37 °FPassing clouds.2 mph100%30.01 "HgN/A
6:50 AM36 °FPassing clouds.3 mph100%30.01 "HgN/A
6:20 AM34 °FPassing clouds.3 mph100%30.01 "HgN/A
5:50 AM34 °FPassing clouds.2 mph100%30.01 "HgN/A
5:20 AM34 °FPassing clouds.2 mph100%30.01 "HgN/A
4:20 AM36 °FChilly.1 mph100%30.01 "HgN/A
3:50 AM34 °FPassing clouds.1 mph100%30.01 "HgN/A
3:20 AM36 °FPassing clouds.1 mph100%30.01 "HgN/A
2:50 AM37 °FPassing clouds.1 mph100%30.01 "HgN/A
2:20 AM37 °FPassing clouds.1 mph100%30.01 "HgN/A
1:50 AM37 °FPassing clouds.No wind100%30.01 "HgN/A
1:20 AM39 °FPassing clouds.1 mph93%30.04 "HgN/A
12:50 AM39 °FPassing clouds.1 mph100%30.04 "HgN/A
12:20 AM39 °FPassing clouds.1 mph100%30.01 "HgN/A
11:50 PM
Fri, Apr 29
39 °FPassing clouds.2 mph100%30.01 "HgN/A
11:20 PM41 °FPassing clouds.2 mph93%30.01 "HgN/A
10:50 PM41 °FPassing clouds.3 mph93%30.01 "HgN/A
10:20 PM41 °FClear.2 mph93%30.01 "Hg10 mi
9:50 PM43 °FClear.2 mph87%30.01 "Hg10 mi
9:20 PM46 °FSunny.1 mph82%30.01 "Hg10 mi
8:50 PM52 °FPassing clouds.2 mph62%29.98 "HgN/A
8:20 PM54 °FPassing clouds.5 mph58%29.98 "HgN/A
7:50 PM57 °FPassing clouds.2 mph51%29.98 "HgN/A
7:20 PM59 °FPassing clouds.2 mph45%29.98 "HgN/A
6:50 PM59 °FPassing clouds.2 mph45%29.98 "HgN/A
6:20 PM61 °FPassing clouds.5 mph42%29.98 "HgN/A
5:50 PM59 °FPassing clouds.5 mph42%29.98 "HgN/A
5:20 PM59 °FPassing clouds.6 mph45%30.01 "HgN/A
Weather by CustomWeather, © 2016

See weather overviewHow to use our weather pages